Regional Weather Roundup
Issued by NWS Northern Indiana

Home | Current Version | Previous Version | Text Only | Print | Product List | Glossary Off
Versions: 1 2 3 4 5 6 7 8 9 10 11 12 13 14 15 16 17 18 19 20 21 22 23 24 25 26 27 28 29 30 31 32 33 34 35 36 37 38 39 40 41 42 43 44 45 46 47 48 49 50

149
ASUS43 KIWX 301500
RWRIWX

KIWX WEATHER ROUNDUP
NATIONAL WEATHER SERVICE NORTHERN INDIANA
1100 AM EDT FRI SEP 30 2016

NOTE: "FAIR" INDICATES FEW OR NO CLOUDS BELOW 12,000 FEET WITH NO
SIGNIFICANT WEATHER AND/OR OBSTRUCTIONS TO VISIBILITY.

* THESE STATIONS ARE NOT UNDER NWS QUALITY CONTROL. THEY ALSO MAY NOT
  REPORT WEATHER SUCH AS PRECIPITATION OR FOG.

INZ001>027-301600-
NORTHERN INDIANA

CITY           SKY/WX    TMP DP  RH WIND       PRES   REMARKS
GARY*          CLOUDY    63  61  94 NE12G24   30.14R
KNOX*          CLOUDY    61  46  59 NE12      30.10S
SOUTH BEND     CLOUDY    62  59  90 NE9       30.13R
GOSHEN         CLOUDY    63  58  83 NE10      30.11F
MONTICELLO*    CLOUDY    61  57  86 NE8       30.07R
WARSAW*        CLOUDY    61  61 100 E12       30.10R
ANGOLA*          N/A     63  52  67 E9        30.11F
FORT WAYNE     LGT RAIN  61  58  90 NE12      30.08S FOG

$$
INZ028>050-301600-
CENTRAL INDIANA

CITY           SKY/WX    TMP DP  RH WIND       PRES   REMARKS
KOKOMO*        LGT RAIN  61  60  97 NE13      30.07S FOG
MUNCIE*        CLOUDY    64  61  90 NE10      30.04F
INDIANAPOLIS   CLOUDY    63  58  83 NE5       30.04S

$$
MIZ043>046-050>051-056>058-064>065-071>073-077>080-301600-
SOUTHWEST LOWER MICHIGAN

CITY           SKY/WX    TMP DP  RH WIND       PRES   REMARKS
BATTLE CREEK   CLOUDY    61  60  97 NE13      30.17S
BENTON HARBOR  CLOUDY    62  57  83 NE13      30.15R
COLDWATER*     CLOUDY    62  61  99 NE9       30.13F
HILLSDALE*     CLOUDY    61  59  94 E10       30.14R
HOLLAND        CLOUDY    61  58  90 NE7       30.20R
GRAND RAPIDS   LGT RAIN  59  56  89 E10       30.21R
KALAMAZOO      CLOUDY    61  57  87 NE10      30.16S FOG
STURGIS*       RAIN      61  59  94 NE7       30.12F
THREE RIVERS*  LGT RAIN  61  60  96 NE10      30.14F

$$
OHZ001>008-015>018-024>025-301600-
NORTHWEST OHIO

CITY           SKY/WX    TMP DP  RH WIND       PRES   REMARKS
DEFIANCE       CLOUDY    64  58  80 NE9       30.11S
FINDLAY        CLOUDY    64  58  80 NE13      30.08F
TOLEDO EXPRESS CLOUDY    63  60  90 E9        30.12S
TOLEDO METCALF CLOUDY    65  60  84 E9        30.14R
LIMA           LGT RAIN  61  61 100 E8        30.07S

$$
AND FOR LAKE MICHIGAN COASTAL AND OPEN LAKE BUOY OBSERVATIONS

STATION/POSITION TEMP    WIND        PRES    VSBY  WAVE
                 AIR SEA DIR/SP/G                  HT/PER
                 (F)     (DEG/KT/KT) (MB)    (MI)  (FT/S)
CALUMET HARBOR    62      40/ 14/ 19 1019.9R
MICHIGAN CITY     60      30/ 18/ 20   N/A
BURNS HARBOR      61      40/ 18/ 24 1020.3R
SAINT JOSEPH      62      40/  4/ 15 1021.7R
SOUTH LAKE BUOY   62 68   60/ 21/ 25 1021.0          5/ 5
4 MI NW BRIDGMAN  56 51   20/ 10/ 16 1020.8R         4/ 6
MICHIGAN CITY     61 64   50/ 16/ 21   N/A           6/ 6

$$
&&




USA.gov is the U.S. government's official web portal to all federal, state and local government web resources and services.